DW7371 Weather Reports


Display with metric or nautical units.
time (UTC)temp
F
wind
direction
speed
MPH
gust
MPH
rain 1hr
in
rain 24hr
in
rain mn
in
humidity
%
barometer
mb
20260505124039 50 178 5.0 8.0 0.00 0.00 0.00 92 1011.3
20260505123031 50 184 5.0 9.0 0.00 0.00 0.00 91 1011.2
20260505122018 51 190 6.0 9.0 0.00 0.00 0.00 90 1011.1
20260505120956 51 179 4.0 10.0 0.00 0.00 0.00 89 1011.1
20260505115958 51 182 5.0 10.0 0.00 0.00 0.00 89 1010.9
20260505115023 51 157 4.0 10.0 0.00 0.00 0.00 89 1011.0
20260505113955 51 183 3.0 10.0 0.00 0.00 0.00 88 1010.7
20260505111809 52 151 2.0 6.0 0.00 0.00 0.00 87 1010.6
20260505110757 52 157 1.0 4.0 0.00 0.00 0.00 86 1010.4
20260505101527 53 194 7.0 11.0 0.00 0.00 0.00 84 1009.8
20260505100509 54 198 8.0 12.0 0.00 0.00 0.00 82 1009.7
20260505095523 54 194 9.0 17.0 0.00 0.00 0.00 81 1009.7
20260505094524 55 195 7.0 17.0 0.00 0.00 0.00 80 1009.7
20260505093547 55 185 7.0 14.0 0.00 0.00 0.00 79 1009.5
20260505091458 56 181 6.0 16.0 0.00 0.00 0.00 78 1009.3
20260505090459 55 200 6.0 15.0 0.00 0.00 0.00 80 1009.3
20260505084304 53 199 9.0 17.0 0.00 0.00 0.00 85 1009.2
20260505082208 53 190 8.0 15.0 0.00 0.00 0.00 85 1009.0
20260505081216 53 190 6.0 14.0 0.00 0.00 0.00 84 1008.8
20260505080224 53 210 6.0 12.0 0.00 0.00 0.00 84 1008.6
20260505075236 54 181 3.0 8.0 0.00 0.00 0.00 84 1008.5
20260505073040 53 143 1.0 5.0 0.00 0.00 0.00 85 1008.2
20260505072039 53 117 1.0 7.0 0.00 0.00 0.00 85 1008.1
20260505071056 53 130 1.0 7.0 0.00 0.00 0.00 84 1008.1
20260505070036 53 115 1.0 3.0 0.00 0.00 0.00 84 1008.0
20260505065055 53 135 0.0 3.0 0.00 0.00 0.00 85 1007.9
20260505064057 53 171 0.0 6.0 0.00 0.00 0.00 85 1007.8
20260505063024 53 109 0.0 4.0 0.00 0.00 0.00 84 1007.7
20260505062048 53 71 0.0 4.0 0.00 0.00 0.00 84 1007.7
20260505055930 53 38 0.0 0.0 0.00 0.00 0.00 85 1007.6
20260505052657 53 72 0.0 3.0 0.00 0.00 0.00 85 1007.3
20260505051716 53 205 0.0 0.0 0.00 0.00 0.00 85 1007.2
20260505050716 53 200 0.0 2.0 0.00 0.00 0.00 85 1007.1
20260505041334 54 106 0.0 2.0 0.00 0.00 0.00 84 1006.7
20260505040345 54 135 0.0 4.0 0.00 0.00 0.00 84 1006.7
20260505035405 54 107 1.0 5.0 0.00 0.00 0.00 83 1006.6
20260505033226 56 180 0.0 3.0 0.00 0.00 0.00 81 1006.3
20260505031103 57 109 0.0 3.0 0.00 0.00 0.00 78 1006.1
20260505030059 57 139 0.0 2.0 0.00 0.00 0.00 79 1006.1
20260505025052 58 156 1.0 4.0 0.00 0.00 0.00 78 1006.0
20260505024052 59 49 1.0 4.0 0.00 0.00 0.00 76 1006.0
20260505023035 60 152 1.0 6.0 0.00 0.00 0.00 75 1006.1
20260505022034 60 148 1.0 6.0 0.00 0.00 0.00 74 1006.1
20260505014730 62 187 1.0 7.0 0.00 0.00 0.00 70 1006.4
20260505013729 63 161 2.0 8.0 0.00 0.00 0.00 67 1006.4
20260505012738 65 115 2.0 8.0 0.00 0.00 0.00 65 1006.4
20260505010642 67 163 3.0 6.0 0.00 0.00 0.00 62 1006.6
20260505004524 68 165 7.0 13.0 0.00 0.00 0.00 59 1006.6
20260505003539 71 196 5.0 8.0 0.00 0.00 0.00 49 1006.7
20260505001413 73 163 4.0 9.0 0.00 0.00 0.00 44 1006.7
20260505000340 73 182 5.0 9.0 0.00 0.00 0.00 44 1006.8
20260504235405 74 200 6.0 9.0 0.00 0.00 0.00 43 1006.9
20260504233259 74 192 4.0 8.0 0.00 0.00 0.00 50 1007.0
20260504232249 72 245 4.0 8.0 0.00 0.00 0.00 50 1007.1
20260504231235 72 249 5.0 9.0 0.00 0.00 0.00 53 1007.1
20260504230233 72 219 4.0 10.0 0.00 0.00 0.00 49 1007.2
20260504223040 73 225 6.0 9.0 0.00 0.00 0.00 53 1007.3
20260504222030 73 242 5.0 9.0 0.00 0.00 0.00 53 1007.4
20260504221030 73 263 5.0 9.0 0.00 0.00 0.00 54 1007.5
20260504220035 73 259 6.0 9.0 0.00 0.00 0.00 50 1007.5
20260504215022 74 256 3.0 9.0 0.00 0.00 0.00 53 1007.5
20260504214034 74 191 3.0 8.0 0.00 0.00 0.00 51 1007.6
20260504213046 74 197 3.0 7.0 0.00 0.00 0.00 49 1007.7
20260504212056 74 269 3.0 9.0 0.00 0.00 0.00 52 1007.7
20260504211107 73 221 4.0 9.0 0.00 0.00 0.00 50 1007.6
20260504210036 73 165 4.0 8.0 0.00 0.00 0.00 50 1007.7
20260504202749 73 198 3.0 8.0 0.00 0.00 0.00 52 1007.9
20260504201736 72 171 4.0 9.0 0.00 0.00 0.00 56 1008.1
20260504195554 71 140 4.0 8.0 0.00 0.00 0.00 52 1008.1
20260504194539 71 192 3.0 7.0 0.00 0.00 0.00 53 1007.9
20260504193558 71 207 4.0 9.0 0.00 0.00 0.00 53 1007.9
20260504192524 71 211 4.0 9.0 0.00 0.00 0.00 55 1008.0
20260504184114 69 207 2.0 7.0 0.00 0.00 0.00 57 1008.2
20260504183105 70 171 3.0 7.0 0.00 0.00 0.00 59 1008.2
20260504182116 70 199 2.0 6.0 0.00 0.00 0.00 59 1008.1
20260504181114 69 178 3.0 6.0 0.00 0.00 0.00 57 1008.1
20260504180133 69 128 2.0 6.0 0.00 0.00 0.00 56 1008.3
20260504175105 68 200 2.0 6.0 0.00 0.00 0.00 55 1008.3
20260504173037 68 269 1.0 4.0 0.00 0.00 0.00 62 1008.2
20260504172053 68 277 0.0 1.0 0.00 0.00 0.00 64 1008.2
20260504171057 67 277 1.0 2.0 0.00 0.00 0.00 64 1008.2
20260504150823 58 63 0.0 1.0 0.00 0.00 0.00 79 1008.1
20260504140812 54 49 0.0 0.0 0.00 0.00 0.00 81 1007.5